| time (UTC) | temp F | wind direction | speed MPH | gust MPH | rain 1hr in | rain 24hr in | rain mn in | humidity % | barometer mb |
| 20260504223004 | 81 | 342 | 4.0 | 0.0 | 0.00 | 0.00 | 0.00 | 23 | 1001.0 |
| 20260504221504 | 81 | 69 | 4.0 | 0.0 | 0.00 | 0.00 | 0.00 | 23 | 1001.3 |
| 20260504220059 | 80 | 351 | 3.0 | 0.0 | 0.00 | 0.00 | 0.00 | 24 | 1001.5 |
| 20260504214538 | 80 | 355 | 4.0 | 0.0 | 0.00 | 0.00 | 0.00 | 26 | 1001.7 |
| 20260504213041 | 79 | 333 | 4.0 | 0.0 | 0.00 | 0.00 | 0.00 | 27 | 1002.0 |
| 20260504211525 | 79 | 355 | 0.0 | 0.0 | 0.00 | 0.00 | 0.00 | 29 | 1002.3 |
| 20260504210018 | 79 | 332 | 0.0 | 0.0 | 0.00 | 0.00 | 0.00 | 30 | 1002.5 |
| 20260504204516 | 79 | 331 | 0.0 | 0.0 | 0.00 | 0.00 | 0.00 | 31 | 1002.7 |
| 20260504203015 | 78 | 319 | 0.0 | 0.0 | 0.00 | 0.00 | 0.00 | 30 | 1003.0 |
| 20260504201513 | 77 | 313 | 0.0 | 0.0 | 0.00 | 0.00 | 0.00 | 32 | 1003.2 |
| 20260504200012 | 76 | 299 | 0.0 | 0.0 | 0.00 | 0.00 | 0.00 | 32 | 1003.4 |
| 20260504194516 | 76 | 322 | 0.0 | 0.0 | 0.00 | 0.00 | 0.00 | 32 | 1003.7 |
| 20260504193011 | 75 | 319 | 0.0 | 0.0 | 0.00 | 0.00 | 0.00 | 32 | 1003.8 |
| 20260504191621 | 75 | 313 | 0.0 | 0.0 | 0.00 | 0.00 | 0.00 | 30 | 1004.0 |
| 20260504184605 | 74 | 281 | 0.0 | 0.0 | 0.00 | 0.00 | 0.00 | 33 | 1004.5 |
| 20260504183056 | 73 | 270 | 2.0 | 0.0 | 0.00 | 0.00 | 0.00 | 35 | 1004.6 |
| 20260504181555 | 72 | 302 | 0.0 | 0.0 | 0.00 | 0.00 | 0.00 | 36 | 1004.8 |
| 20260504180055 | 72 | 304 | 1.0 | 0.0 | 0.00 | 0.00 | 0.00 | 35 | 1004.8 |
| 20260504174554 | 70 | 305 | 4.0 | 0.0 | 0.00 | 0.00 | 0.00 | 37 | 1004.9 |
| 20260504173054 | 70 | 290 | 3.0 | 0.0 | 0.00 | 0.00 | 0.00 | 39 | 1005.0 |
| 20260504171540 | 69 | 301 | 2.0 | 0.0 | 0.00 | 0.00 | 0.00 | 44 | 1005.1 |
| 20260504081534 | 58 | 328 | 1.0 | 0.0 | 0.00 | 0.00 | 0.00 | 55 | 1004.6 |
| 20260504050022 | 65 | 334 | 0.0 | 0.0 | 0.00 | 0.00 | 0.00 | 44 | 1004.4 |
| 20260504044519 | 66 | 334 | 0.0 | 0.0 | 0.00 | 0.00 | 0.00 | 43 | 1004.5 |
| 20260504043108 | 67 | 334 | 0.0 | 0.0 | 0.00 | 0.00 | 0.00 | 41 | 1004.4 |
| 20260504041600 | 68 | 334 | 0.0 | 0.0 | 0.00 | 0.00 | 0.00 | 39 | 1004.3 |
| 20260504040041 | 69 | 334 | 0.0 | 0.0 | 0.00 | 0.00 | 0.00 | 37 | 1004.3 |
| 20260504034541 | 70 | 334 | 0.0 | 0.0 | 0.00 | 0.00 | 0.00 | 37 | 1004.2 |
| 20260504033038 | 71 | 334 | 0.0 | 0.0 | 0.00 | 0.00 | 0.00 | 35 | 1004.1 |
| 20260504031530 | 72 | 334 | 0.0 | 0.0 | 0.00 | 0.00 | 0.00 | 33 | 1003.9 |
| 20260504030027 | 74 | 334 | 0.0 | 0.0 | 0.00 | 0.00 | 0.00 | 31 | 1003.8 |
| 20260504024531 | 75 | 334 | 1.0 | 0.0 | 0.00 | 0.00 | 0.00 | 30 | 1003.8 |
| 20260504023019 | 76 | 334 | 2.0 | 0.0 | 0.00 | 0.00 | 0.00 | 29 | 1003.8 |
| 20260504021515 | 77 | 329 | 3.0 | 0.0 | 0.00 | 0.00 | 0.00 | 27 | 1003.9 |
| 20260504020055 | 78 | 329 | 3.0 | 0.0 | 0.00 | 0.00 | 0.00 | 25 | 1003.9 |
| 20260504014553 | 79 | 331 | 4.0 | 0.0 | 0.00 | 0.00 | 0.00 | 26 | 1003.9 |
| 20260504013038 | 79 | 331 | 4.0 | 0.0 | 0.00 | 0.00 | 0.00 | 24 | 1004.1 |
| 20260504011531 | 80 | 333 | 4.0 | 0.0 | 0.00 | 0.00 | 0.00 | 24 | 1004.3 |
| 20260504010018 | 80 | 334 | 4.0 | 0.0 | 0.00 | 0.00 | 0.00 | 24 | 1004.5 |
| 20260504004518 | 81 | 328 | 4.0 | 0.0 | 0.00 | 0.00 | 0.00 | 23 | 1004.7 |
| 20260504003028 | 81 | 350 | 4.0 | 0.0 | 0.00 | 0.00 | 0.00 | 22 | 1004.9 |
| 20260504001514 | 81 | 333 | 4.0 | 0.0 | 0.00 | 0.00 | 0.00 | 23 | 1005.1 |
| 20260504000012 | 82 | 315 | 4.0 | 0.0 | 0.00 | 0.00 | 0.00 | 23 | 1005.1 |
| 20260503234511 | 81 | 330 | 4.0 | 0.0 | 0.00 | 0.00 | 0.00 | 23 | 1005.1 |
| 20260503233009 | 81 | 326 | 5.0 | 0.0 | 0.00 | 0.00 | 0.00 | 23 | 1005.5 |
| 20260503231507 | 82 | 317 | 4.0 | 0.0 | 0.00 | 0.00 | 0.00 | 21 | 1005.7 |
| 20260503230053 | 82 | 342 | 4.0 | 0.0 | 0.00 | 0.00 | 0.00 | 22 | 1006.0 |
| 20260503224546 | 82 | 9 | 3.0 | 0.0 | 0.00 | 0.00 | 0.00 | 19 | 1006.1 |